Weather History for Olympia, WA

Change the Weather History Date:

Tuesday, February 26, 2013

  Actual Average Record
Temperature  
Mean Temperature 41 °F 42 °F  
Max Temperature 48 °F 51 °F 68 °F (1992)
Min Temperature 34 °F 33 °F 8 °F (2011)
Degree Days  
Heating Degree Days 24 23  
Month to date heating degree days 610 621  
Since 1 July heating degree days 3648 3672  
Cooling Degree Days 0 0  
Month to date cooling degree days 0 0  
Year to date cooling degree days 0 0  
Moisture  
Dew Point 35 °F    
Average Humidity 80    
Maximum Humidity 100    
Minimum Humidity 60    
Precipitation  
Precipitation 0.01 in 0.18 in 1.22 in (1965)
Month to date precipitation 2.79 4.91  
Year to date precipitation 6.70 12.75  
Sea Level Pressure  
Sea Level Pressure 30.30 in    
Wind  
Wind Speed 8 mph (SSW)    
Max Wind Speed 15 mph    
Max Gust Speed 19 mph    
Visibility 10 miles    
Events Rain    
T = Trace of Precipitation, MM = Missing Value Source: NWS Daily Summary

Daily Weather History Graph

Daily Weather History Graph

Search for Another Location

Airport:

Trip Planner

Search our weather history database for the weather conditions in past years. The results will help you decide how hot, cold, wet, or windy it might be!

Date:

Astronomy

Feb. 26, 2013 Rise Set
Actual Time 6:56 AM PST 5:53 PM PST
Civil Twilight 6:25 AM PST 6:23 PM PST
Nautical Twilight 5:50 AM PST 6:59 PM PST
Astronomical Twilight 5:15 AM PST 7:34 PM PST
Moon 7:24 PM PST (2/26) 6:55 AM PST (2/26)
Length of Visible Light 11h 58m
Length of Day
10h 56m
Full, 99% of the Moon is Illuminated
Feb 26
Full
Mar 4
Last Quarter
Mar 11
New
Mar 19
First Quarter
Mar 27
Full

Hourly Weather History & Observations

Time (PST) Temp. Windchill Dew Point Humidity Pressure Visibility Wind Dir Wind Speed Gust Speed Precip Events Conditions
12:54 AM 36.0 °F 28.5 °F 34.0 °F 93% 30.33 in 10.0 mi South 10.4 mph - N/A   Partly Cloudy
1:54 AM 36.0 °F 29.6 °F 34.0 °F 93% 30.34 in 10.0 mi South 8.1 mph - N/A   Scattered Clouds
2:54 AM 36.0 °F 29.6 °F 34.0 °F 93% 30.35 in 10.0 mi South 8.1 mph - N/A   Mostly Cloudy
3:37 AM 36.0 °F 31.1 °F 34.0 °F 93% 30.34 in 10.0 mi SSW 5.8 mph - N/A   Mostly Cloudy
3:49 AM 35.6 °F 32.8 °F 33.8 °F 93% 30.34 in 10.0 mi SSW 3.5 mph - N/A   Overcast
3:54 AM 37.0 °F 33.3 °F 34.0 °F 89% 30.35 in 10.0 mi South 4.6 mph - N/A   Overcast
4:54 AM 37.0 °F 30.4 °F 34.0 °F 89% 30.36 in 10.0 mi SW 9.2 mph - N/A   Overcast
5:17 AM 37.0 °F 32.4 °F 34.0 °F 89% 30.35 in 10.0 mi SSW 5.8 mph - N/A   Overcast
5:54 AM 37.0 °F 32.4 °F 35.1 °F 93% 30.36 in 8.0 mi SW 5.8 mph - 0.00 in Rain Light Rain
6:03 AM 37.0 °F 33.3 °F 35.1 °F 93% 30.36 in 10.0 mi SW 4.6 mph - 0.00 in   Overcast
6:54 AM 36.0 °F 32.1 °F 35.1 °F 97% 30.36 in 9.0 mi WSW 4.6 mph - 0.00 in   Overcast
7:44 AM 36.0 °F 31.1 °F 34.0 °F 93% 30.36 in 7.0 mi WSW 5.8 mph - N/A   Mostly Cloudy
7:54 AM 36.0 °F 33.3 °F 35.1 °F 97% 30.37 in 7.0 mi West 3.5 mph - N/A   Mostly Cloudy
8:54 AM 39.9 °F 34.5 °F 35.1 °F 83% 30.37 in 10.0 mi SW 8.1 mph - N/A   Mostly Cloudy
9:54 AM 42.1 °F 35.2 °F 35.1 °F 76% 30.35 in 10.0 mi SSW 12.7 mph - N/A   Mostly Cloudy
10:54 AM 44.1 °F 40.1 °F 35.1 °F 71% 30.33 in 10.0 mi SSW 6.9 mph - N/A   Scattered Clouds
11:54 AM 44.1 °F 39.5 °F 35.1 °F 71% 30.31 in 10.0 mi South 8.1 mph - N/A   Partly Cloudy
12:54 PM 46.0 °F 40.2 °F 35.1 °F 66% 30.29 in 10.0 mi South 12.7 mph - N/A   Mostly Cloudy
1:54 PM 46.0 °F 41.4 °F 34.0 °F 63% 30.27 in 10.0 mi South 9.2 mph - N/A   Mostly Cloudy
2:54 PM 46.9 °F - 34.0 °F 61% 30.27 in 10.0 mi South 10.4 mph - N/A   Overcast
3:54 PM 46.0 °F 40.6 °F 33.1 °F 61% 30.26 in 10.0 mi SSW 11.5 mph - N/A   Overcast
4:54 PM 45.0 °F 39.3 °F 33.1 °F 63% 30.24 in 10.0 mi South 11.5 mph - N/A   Overcast
5:54 PM 44.1 °F 40.1 °F 34.0 °F 68% 30.23 in 10.0 mi South 6.9 mph - 0.00 in Rain Light Rain
6:54 PM 43.0 °F 38.2 °F 35.1 °F 74% 30.23 in 9.0 mi South 8.1 mph - 0.00 in Rain Light Rain
7:54 PM 43.0 °F 37.7 °F 35.1 °F 74% 30.22 in 10.0 mi South 9.2 mph - 0.00 in   Overcast
8:54 PM 43.0 °F 38.2 °F 35.1 °F 74% 30.22 in 10.0 mi SSW 8.1 mph - 0.00 in Rain Light Rain
9:54 PM 42.1 °F 37.1 °F 36.0 °F 79% 30.21 in 9.0 mi SSW 8.1 mph - 0.01 in Rain Light Rain
10:54 PM 42.1 °F 36.6 °F 36.0 °F 79% 30.22 in 9.0 mi SW 9.2 mph - 0.00 in Rain Light Rain
11:54 PM 42.1 °F 37.1 °F 36.0 °F 79% 30.22 in 10.0 mi SSW 8.1 mph - 0.00 in   Overcast